www.pogodaiklimat.ru

Погода и климат >> Архив погоды >> Россия >> Магаданская область >> Сусуман


АРХИВ ПОГОДЫ в Сусумане

Время (UTC), дата Ветер
(напр.,м/с)
 
Видим.   Явления Облачность Т
(С)
Тd
(С)
f
(%)
Тe
(С)
Тes
(С)
Комфортность P
(гПа)
Po
(гПа)
Тmin
(С)
Tmax
(С)
R
(мм)
R24
(мм)
S
(см)
12 11.06 Ю 3 50 км 6/3 1000 м
[Sc Ac trans Ci fib]
+11.2 +3.4 59 +10 +10 1011.7 935.9
15 11.06 ЮЗ 1 50 км 4/3 1000 м
[Sc Ci fib]
+6.9 +3.0 76 +6 +6 1013.8 936.7
18 11.06 ЮЗ 1 50 км 3/3 1000 м
[Sc]
+5.2 +2.8 84 +4 +4 1015.2 937.5
21 11.06 ЮЗ 2 50 км 4/3 1000 м
[Sc Ci fib]
+11.5 +4.4 62 +11 +14 1013.1 937.3 +4.8
00 12.06 ЮЗ 4 50 км 6/6 1170 м
[Cu hum]
+14.4 +3.8 49 +13 +16 1011.3 936.3
03 12.06 ЮЗ 4 50 км 8/8 1140 м
[Cu hum]
+16.1 +2.9 41 +15 +17 1009.6 935.1
06 12.06 Ю 4 50 км 9/5 1000 м
[Cu hum Cs]
+16.8 +2.0 37 +16 +18 1008.6 934.3
09 12.06 ЮЗ 4 50 км 9/3 1000 м
[Cb cap Cs]
+15.8 +1.3 37 +15 +16 1008.9 934.4 +17.7
12 12.06 Ю 3 50 км 3/1 1000 м
[Sc Ci fib]
+11.7 +1.4 49 +10 +10 1010.9 935.2
15 12.06 ЮЗ 2 50 км ясно +5.1 +1.9 80 +3 +3 1013.4 935.8
18 12.06 ЮЗ 2 50 км ясно +2.7 +1.0 89 -1 -0 1015.0 936.6
21 12.06 ЮЗ 3 50 км ясно +11.7 +3.3 56 +10 +14 1012.5 936.7 +1.3
00 13.06 Ю 4 50 км 3/3 1000 м
[Cu hum]
+15.3 +2.1 41 +14 +20 1010.9 936.1
03 13.06 ЮЗ 4 50 км 6/6 960 м
[Cb cap]
+16.3 +0.5 34 +16 +19 1010.2 935.7
06 13.06 Ю 5
{10}
50 км 8/8 1170 м
[Cb cap]
+16.2 -0.4 32 +15 +16 1009.7 935.2
09 13.06 Ю 5 50 км 3/3 1000 м
[Sc]
+15.7 +0.4 35 +15 +15 1010.2 935.5 +18.2
12 13.06 ЮЗ 2 50 км 1/1 1000 м
[Sc]
+9.3 +1.6 59 +8 +8 1012.6 936.1
15 13.06 ЮЗ 2 50 км 8/0
[Ac trans]
+5.7 +1.5 74 +3 +3 1014.2 936.7
18 13.06 З 1 50 км 8/0
[Ac cast]
+6.2 +2.7 78 +5 +5 1014.5 937.2
21 13.06 ЮЗ 3 50 км 8/0
[Ac cast]
+11.8 +3.2 56 +10 +12 1012.9 937.1 +4.5
00 14.06 ЮЗ 3 50 км 6/0
[Ac cast Ci fib]
+15.8 +3.4 43 +15 +22 1010.7 936.1
03 14.06 ЮЗ 3 50 км 8/4 1000 м
[Cu hum Ci fib]
+19.3 +3.9 36 +20 +26 1008.7 935.1
06 14.06 Ю 3 50 км 8/6 1110 м
[Cu hum Ci fib]
+20.8 +3.6 32 +22 +24 комфорт 1007.1 934.0
09 14.06 Ю 2 50 км 8/6 960 м
[Cb cap Cs]
+17.7 +3.1 38 +18 +19 1008.7 934.7 +20.9
12 14.06 В 2 50 км 8/4 1000 м
[Sc diur, vesp Ci fib]
+12.3 +7.0 70 +11 +11 1011.8 936.3
15 14.06 В 1 50 км 4/4 1000 м
[Sc diur, vesp]
+3.1 +2.3 94 +1 +1 1016.2 937.9
18 14.06 В 1 50 км 3/3 1000 м
[Sc]
+2.4 +2.1 98 +1 +1 1017.6 939.0
21 14.06 штиль 0 50 км 3/3 1000 м
[Sc]
+13.0 +5.8 62 +13 +17 1015.2 939.6 +1.8
00 15.06 З 2 50 км 3/3 1000 м
[Cu Sc]
+18.3 +2.9 36 +19 +27 1013.2 939.0
03 15.06 ЮЗ 4 50 км 9/6 1170 м
[Cb cap Ci fib]
+19.7 +3.6 34 +20 +23 1011.9 938.2
06 15.06 ЮЗ 3 50 км 9/3 1000 м
[Cu hum Cs]
+20.1 -1.0 24 +20 +24 1011.7 938.0
09 15.06 ЮЗ 2 50 км ясно +19.5 -2.4 23 +20 +22 1012.4 938.5 +20.4
12 15.06 Ю 1 50 км ясно +8.9 +2.6 65 +9 +9 1016.5 939.7
15 15.06 В 2 50 км ясно +1.9 -1.1 80 -1 -1 1020.1 941.1
18 15.06 СВ 1 50 км ясно +0.6 -0.5 92 -1 -1 1021.3 941.8
21 15.06 ЮЗ 1 50 км 1/0
[Ci fib]
+11.1 +2.4 55 +11 +16 1018.0 941.6 -0.9
00 16.06 З 1 50 км 4/1 1000 м
[Cu hum Ci fib]
+18.2 +1.0 31 +19 +30 1014.4 940.0
03 16.06 В 4 50 км 8/8 960 м
[Cb cap]
+22.5 -0.6 21 +22 +23 комфорт 1010.8 937.7
06 16.06 В 5
{11}
50 км 9/8 960 м
[Cb calv Ci fib]
+21.1 -0.4 24 +21 +21 комфорт 1009.4 936.1
09 16.06 СВ 3
{16}
50 км 9/8 1020 м
[Cb calv Ci fib]
+16.6 +4.3 44 +16 +17 1010.1 935.7 +22.7
12 16.06 СВ 1 50 км 8/6 1140 м
[Sc diur, vesp Ci fib]
+11.2 +6.0 70 +11 +11 1011.2 935.4
15 16.06 штиль 0 50 км 9/8 1140 м
[Sc Ci fib]
+5.5 +2.5 81 +5 +5 1013.1 935.6
18 16.06 В 2 20 км слаб. ливневой дождь 9/9 930 м
[Cb cap]
+9.1 +4.7 74 +8 +8 1012.2 935.8
21 16.06 З 1 50 км {ливн. осадки} 9/9 840 м
[Cb cap]
+9.4 +5.8 78 +9 +9 1013.1 936.7 +5.1 0.0
00 17.06 Ю 4 20 км слаб. ливневой дождь 9/9 960 м
[Cb cap]
+9.4 +6.8 84 +7 +7 1014.0 937.6
03 17.06 ЮЗ 4 50 км {ливн. осадки} 8/8 1000 м
[Cb cap]
+11.9 +5.1 63 +10 +12 1013.3 937.5
06 17.06 З 2 50 км {ливн. осадки} 9/9 930 м
[Cb cap]
+13.4 +2.1 46 +13 +14 1012.4 937.0
09 17.06 В 1 50 км 9/5 1000 м
[Sc As trans]
+13.2 +3.1 50 +14 +14 1012.0 936.6 +15.6 0.5
12 17.06 Ю 1 50 км 9/0
[As trans Cs]
+9.3 +2.3 62 +9 +9 1013.7 937.2
15 17.06 ЮВ 1 50 км 9/0
[Cs]
+5.1 +2.8 85 +4 +4 1014.7 937.0
18 17.06 штиль 0 50 км 9/3 1000 м
[Sc Cs]
+5.1 +3.2 88 +4 +4 1014.1 936.5
21 17.06 С 2 20 км слаб. ливневой дождь 10/8 930 м
[Cb cap As op]
+8.8 +5.7 81 +7 +7 1013.0 936.4 +4.5 0.0
00 18.06 С 3 20 км слаб. ливневой дождь 10/10 900 м
[Cb cap]
+9.6 +8.2 91 +7 +7 1013.0 936.7
03 18.06 СВ 4 50 км {ливн. осадки} 10/10 960 м
[Cb cap]
+11.8 +7.4 74 +10 +10 1011.6 936.0
06 18.06 СВ 4 50 км {ливн. осадки} 10/10 900 м
[Cb cap]
+12.3 +6.9 70 +10 +10 1011.7 936.2

 

Местоположение метеостанции Сусуман (Магаданская область, Россия): широта 62.78 долгота 148.10 высота над уровнем моря 655 м.

В архиве по умолчанию представлена погода в Сусумане за последнюю неделю. Архивные данные за месяц целиком и за предыдущие месяцы, начиная с января 2011 года, Вы можете получить, выбрав интересующий диапазон дат из раскрывающегося списка и нажав кнопку "Ввод!".


*Определитесь, кто Вы:
робот инопланетянин человек

Внимание! Время в таблицах - всемирное. Для получения местного времени необходимо прибавить поправку, которая равна 11 ч.

Смотрите также архив погоды в соседних городах и на ближайших метеорологических станциях:

Погода в Ягодной (Магаданская область, Россия) (82 км)
Погода на Озере Джека Лондона (Магаданская область, Россия) (106 км)
Погода в Колымской (Магаданская область, Россия) (107 км)
Погода в Совхозе Эльген (Магаданская область, Россия) (127 км)
Погода в Усть-Бохапче (Магаданская область, Россия) (149 км)
Погода в Делянкире (Якутия, Россия) (171 км)
Погода в Усть-Омчуге (Магаданская область, Россия) (201 км)
Погода в Среднекане (Магаданская область, Россия) (218 км)
Погода в Сеймчане (Магаданская область, Россия) (219 км)
Погода в Оймяконе (Якутия, Россия) (258 км)

Пояснения к столбцам:

Ветер - указаны скорость ветра в м/с - средняя за 10 мин, порывы в срок и между сроками (в фигурных скобках) и направление, откуда дует ветер: С - северный, СВ - северо-восточный, В - восточный, ЮВ - юго-восточный, Ю - южный, ЮЗ - юго-западный, З - западный, СЗ - северо-западный.
Видимость - горизонтальная дальность видимости в метрах или километрах. При видимости от 1 до 10 км при отсутствии осадков обычно наблюдается дымка, при ухудшении видимости до 1 км и менее - туман. В сухую погоду видимость может ухудшаться дымом, пылью или мглою.
Явления - указаны атмосферные явления, наблюдавшиеся в срок или в последний час перед сроком; фигурными скобками обозначены явления, наблюдавшиеся между сроками (за 1-3 часа до срока); квадратными скобками обозначены град или гололедные отложения с указанием их диаметра в мм.
Облачность - указаны через наклонную черту общая и нижняя облачность в баллах и высота нижней границы облаков в метрах; квадратными скобками обозначены формы облаков: Ci - перистые, Cs - перисто-слоистые, Cc - перисто-кучевые, Ac - высококучевые, As - высокослоистые, Sc - слоисто-кучевые, Ns - слоисто-дождевые, Cu - кучевые, Cb - кучево-дождевые. Подробнее классификацию облаков см. в Атласе облаков (PDF).
T - Температура воздуха - температура, измеренная на высоте 2 м над землей.
Td - Температура точки росы - температура, при понижении до которой содержащийся в воздухе водяной пар достигнет насыщения.
f - Относительная влажность воздуха - влажноcть воздуха, измеренная на высоте 2 м над землей.
Te - Эффективная температура - температура, которую ощущает одетый по сезону человек в тени. Характеристика душности погоды. При расчете учитывается влияние влажности воздуха и скорости ветра на теплоощущения человека.
Tes - Эффективная температура на солнце - температура, которую ощущает человек, с поправкой на солнечный нагрев. Характеристика знойности погоды. Зависит от высоты солнца над горизонтом, облачности и скорости ветра. Ночью, в пасмурную погоду, а также при ветре 12 м/с и более поправка равна нулю.
P - Атмосферное давление - приведенное к уровню моря атмосферное давление.
Po - Атмосферное давление - измеренное на уровне метеостанции атмосферное давление.
Tmin - Минимальная температура - минимум температуры воздуха на высоте 2 м над землей.
Tmax - Максимальная температура - максимум температуры воздуха на высоте 2 м над землей.
R - Количество осадков - Количество выпавших осадков за период времени, мм. При наведении курсора мыши на число - период времени, за который выпало указанное количество осадков.
R24 - Количество осадков - Количество выпавших осадков за 24 часа, мм.
S - Снежный покров - Высота снежного покрова, см. При наведении курсора мыши на число - состояние снежного покрова и степень покрытия местности в баллах.